2024/03/02 00:00:00,13.2,-3.8
2024/03/02 00:10:00,13.8,-3.9
2024/03/02 00:20:00,14.1,-3.8
2024/03/02 00:30:00,14.6,-3.9
2024/03/02 00:40:00,15.2,-4.0
2024/03/02 00:50:00,15.4,-4.3
2024/03/02 01:00:00,15.6,-4.1
2024/03/02 01:10:00,15.7,-4.2
2024/03/02 01:20:00,16.0,-4.3
2024/03/02 01:30:00,17.3,-4.1
2024/03/02 01:40:00,18.1,-4.2
2024/03/02 01:50:00,18.4,-4.3
2024/03/02 02:00:00,19.1,-4.2
2024/03/02 02:10:00,19.8,-4.1
2024/03/02 02:20:00,20.7,-4.3
2024/03/02 02:30:00,20.8,-4.3
2024/03/02 02:40:00,21.4,-4.1
2024/03/02 02:50:00,21.9,-4.2
2024/03/02 03:00:00,22.3,-4.3
2024/03/02 03:10:00,22.8,-4.3
2024/03/02 03:20:00,23.4,-4.3
2024/03/02 03:30:00,24.1,-4.3
2024/03/02 03:40:00,24.3,-4.4
2024/03/02 03:50:00,24.8,-4.3
2024/03/02 04:00:00,25.5,-4.3
2024/03/02 04:10:00,26.2,-4.5
2024/03/02 04:20:00,26.8,-4.7
2024/03/02 04:30:00,27.0,-4.5
2024/03/02 04:40:00,27.9,-4.5
2024/03/02 04:50:00,28.3,-4.4
2024/03/02 05:00:00,28.8,-4.7
2024/03/02 05:10:00,29.2,-4.7
2024/03/02 05:20:00,29.4,-4.7
2024/03/02 05:30:00,29.8,-4.7
2024/03/02 05:40:00,30.4,-4.8
2024/03/02 05:50:00,30.6,-4.7
2024/03/02 06:00:00,30.7,-4.6
2024/03/02 06:10:00,31.0,-4.8
2024/03/02 06:20:00,31.0,-4.9
2024/03/02 06:30:00,31.0,-5.7
2024/03/02 06:40:00,32.2,-4.9
2024/03/02 06:50:00,32.9,-5.0
2024/03/02 07:00:00,32.9,-5.1
2024/03/02 07:10:00,32.8,-4.8
2024/03/02 07:20:00,33.0,-4.9
2024/03/02 07:30:00,33.9,-4.6
2024/03/02 07:40:00,34.3,-4.6
2024/03/02 07:50:00,35.0,-4.6
2024/03/02 08:00:00,35.5,-4.4
2024/03/02 08:10:00,35.4,-4.0
2024/03/02 08:20:00,35.4,-3.8
2024/03/02 08:30:00,35.4,-3.6
2024/03/02 08:40:00,35.4,-3.2
2024/03/02 08:50:00,35.5,-3.0
2024/03/02 09:00:00,35.7,-2.6
2024/03/02 09:10:00,36.2,-2.8
2024/03/02 09:20:00,36.5,-2.2
2024/03/02 09:30:00,36.7,-2.4
2024/03/02 09:40:00,36.9,-1.6
2024/03/02 09:50:00,36.8,-1.3
2024/03/02 10:00:00,36.4,-1.9
2024/03/02 10:10:00,36.5,-2.3
2024/03/02 10:20:00,36.8,-1.5
2024/03/02 10:30:00,36.7, 0.3
2024/03/02 10:40:00,36.6, 0.8
2024/03/02 10:50:00,36.3, 0.4
2024/03/02 11:00:00,36.2,-0.7
2024/03/02 11:10:00,36.2,-1.1
2024/03/02 11:20:00,36.6,-1.1
2024/03/02 11:30:00,37.0,-1.1
2024/03/02 11:40:00,37.1,-0.9
2024/03/02 11:50:00,37.2,-0.5
2024/03/02 12:00:00,37.6,-0.3
2024/03/02 12:10:00,37.7,-0.7
2024/03/02 12:20:00,37.7,-1.1
2024/03/02 12:30:00,38.1,-0.5
2024/03/02 12:40:00,38.3,-0.3
2024/03/02 12:50:00,38.1,-0.6
2024/03/02 13:00:00,38.2,-0.7
2024/03/02 13:10:00,38.6,-0.7
2024/03/02 13:20:00,38.8,-0.1
2024/03/02 13:30:00,38.6, 0.1
2024/03/02 13:40:00,38.8, 1.2
2024/03/02 13:50:00,38.4,-0.8
2024/03/02 14:00:00,38.9,-1.6
2024/03/02 14:10:00,39.1,-1.4
2024/03/02 14:20:00,39.2,-1.6
2024/03/02 14:30:00,39.1,-2.1
2024/03/02 14:40:00,39.3,-1.8
2024/03/02 14:50:00,39.6,-1.6
2024/03/02 15:00:00,39.5,-1.6
2024/03/02 15:10:00,39.3,-2.0
2024/03/02 15:20:00,39.1,-2.4
2024/03/02 15:30:00,38.9,-2.8
2024/03/02 15:40:00,38.9,-3.0
2024/03/02 15:50:00,39.5,-1.7
2024/03/02 16:00:00,39.5,-1.7
2024/03/02 16:10:00,39.3,-1.8
2024/03/02 16:20:00,39.1,-2.6
2024/03/02 16:30:00,39.2,-3.2
2024/03/02 16:40:00,39.5,-3.2
2024/03/02 16:50:00,39.5,-3.4
2024/03/02 17:00:00,39.5,-3.5
2024/03/02 17:10:00,39.6,-3.3
2024/03/02 17:20:00,39.4,-3.8
2024/03/02 17:30:00,39.3,-3.9
2024/03/02 17:40:00,39.3,-4.0
2024/03/02 17:50:00,39.5,-4.0
2024/03/02 18:00:00,39.7,-4.1
2024/03/02 18:10:00,39.6,-4.1
2024/03/02 18:20:00,39.5,-4.3
2024/03/02 18:30:00,39.5,-4.3
2024/03/02 18:40:00,39.3,-4.1
2024/03/02 18:50:00,39.2,-4.3
2024/03/02 19:00:00,39.0,-4.3
2024/03/02 19:10:00,38.9,-4.4
2024/03/02 19:20:00,38.8,-4.4
2024/03/02 19:30:00,38.6,-4.7
2024/03/02 19:40:00,38.5,-5.1
2024/03/02 19:50:00,38.4,-5.1
2024/03/02 20:00:00,38.2,-5.0
2024/03/02 20:10:00,38.1,-5.2
2024/03/02 20:20:00,38.0,-5.5
2024/03/02 20:30:00,37.8,-5.7
2024/03/02 20:40:00,37.7,-6.2
2024/03/02 20:50:00,37.6,-6.5
2024/03/02 21:00:00,37.4,-6.6
2024/03/02 21:10:00,37.3,-6.6
2024/03/02 21:20:00,37.2,-6.5
2024/03/02 21:30:00,37.1,-6.6
2024/03/02 21:40:00,36.9,-7.0
2024/03/02 21:50:00,36.8,-6.8
2024/03/02 22:00:00,36.7,-6.9
2024/03/02 22:10:00,36.6,-6.8
2024/03/02 22:20:00,36.6,-6.7
2024/03/02 22:30:00,36.5,-6.9
2024/03/02 22:40:00,36.4,-6.9
2024/03/02 22:50:00,36.5,-7.0
2024/03/02 23:00:00,36.4,-6.9
2024/03/02 23:10:00,36.3,-7.2
2024/03/02 23:20:00,36.2,-7.1
2024/03/02 23:30:00,36.1,-7.1
2024/03/02 23:40:00,36.0,-6.9
2024/03/02 23:50:00,35.8,-7.0
